EW1631 Weather Reports


time (UTC)temp
F
wind
direction
speed
knots
gust
knots
rain 1hr
in
rain 24hr
in
rain mn
in
humidity
%
barometer
mb
20260502151545 83 202 0.0 0.0 0.00 0.00 0.00 19 1009.0
20260502123041 75 312 4.3 8.7 0.00 0.00 0.00 23 1007.5
20260502121521 74 311 0.9 4.3 0.00 0.00 0.00 24 1007.2
20260502114501 75 298 0.9 3.5 0.00 0.00 0.00 24 1007.0
20260502113059 76 44 0.0 7.0 0.00 0.00 0.00 24 1007.0
20260502111606 76 306 4.3 8.7 0.00 0.00 0.00 23 1006.9
20260502110039 75 302 4.3 7.0 0.00 0.00 0.00 24 1007.0
20260502104538 75 324 3.5 7.0 0.00 0.00 0.00 25 1007.0
20260502103017 76 275 2.6 4.3 0.00 0.00 0.00 24 1007.0
20260502101526 75 287 3.5 7.0 0.00 0.00 0.00 24 1006.9
20260502091531 77 238 0.0 0.0 0.00 0.00 0.00 23 1007.3
20260502071503 80 318 1.7 5.2 0.00 0.00 0.00 25 1007.1
20260502070045 81 265 2.6 6.1 0.00 0.00 0.00 25 1007.0
20260502064543 82 277 4.3 8.7 0.00 0.00 0.00 24 1007.3
20260502063029 82 311 3.5 5.2 0.00 0.00 0.00 24 1007.3
20260502061525 83 324 2.6 7.0 0.00 0.00 0.00 25 1007.4
20260502060007 83 329 1.7 7.0 0.00 0.00 0.00 29 1007.3
20260502054507 83 346 3.5 7.8 0.00 0.00 0.00 29 1006.9
20260502053101 84 340 1.7 8.7 0.00 0.00 0.00 29 1007.0
20260502051603 85 301 2.6 7.8 0.00 0.00 0.00 27 1007.0
20260502050037 86 329 2.6 7.8 0.00 0.00 0.00 27 1006.9
20260502044536 86 317 7.8 10.4 0.00 0.00 0.00 26 1006.9
20260502043013 86 304 5.2 9.6 0.00 0.00 0.00 25 1006.6
20260502041513 87 290 4.3 9.6 0.00 0.00 0.00 24 1006.3
20260502040055 88 304 4.3 7.8 0.00 0.00 0.00 23 1006.4
20260502034555 88 337 2.6 7.8 0.00 0.00 0.00 22 1006.0
20260502033050 89 309 3.5 7.8 0.00 0.00 0.00 20 1005.8
20260502031537 89 291 2.6 7.8 0.00 0.00 0.00 19 1005.7
20260502030019 90 266 3.5 9.6 0.00 0.00 0.00 19 1005.4
20260502024518 91 234 4.3 11.3 0.00 0.00 0.00 19 1005.2
20260502023101 91 266 4.3 8.7 0.00 0.00 0.00 19 1005.1
20260502021600 93 261 5.2 9.6 0.00 0.00 0.00 18 1005.0
20260502020052 95 226 3.5 7.8 0.00 0.00 0.00 15 1004.9
20260502014542 95 192 1.7 3.5 0.00 0.00 0.00 10 1004.9
20260502013025 95 194 0.0 3.5 0.00 0.00 0.00 10 1004.9
20260502011525 96 127 2.6 4.3 0.00 0.00 0.00 10 1004.8
20260502010006 98 67 0.9 3.5 0.00 0.00 0.00 9 1004.7
20260502004506 99 316 1.7 3.5 0.00 0.00 0.00 9 1004.6
20260502003048 99 24 3.5 7.0 0.00 0.00 0.00 9 1004.7
20260502001558 100 92 0.0 4.3 0.00 0.00 0.00 9 1004.7
20260502000030 100 360 0.9 5.2 0.00 0.00 0.00 9 1004.9
20260501234525 99 36 1.7 7.0 0.00 0.00 0.00 10 1004.9
20260501233007 97 30 2.6 7.0 0.00 0.00 0.00 10 1004.9
20260501231505 96 111 7.0 9.6 0.00 0.00 0.00 10 1005.0
20260501230049 96 69 2.6 9.6 0.00 0.00 0.00 10 1005.2
20260501224548 98 102 2.6 7.0 0.00 0.00 0.00 10 1005.4
20260501223046 97 115 5.2 8.7 0.00 0.00 0.00 10 1005.6
20260501221528 97 76 2.6 7.8 0.00 0.00 0.00 10 1005.7
20260501220006 96 175 4.3 8.7 0.00 0.00 0.00 11 1006.0
20260501214504 96 98 2.6 8.7 0.00 0.00 0.00 11 1006.3
20260501213045 96 115 2.6 9.6 0.00 0.00 0.00 11 1006.7
20260501211543 96 146 0.0 9.6 0.00 0.00 0.00 11 1006.8
20260501210022 95 135 1.7 11.3 0.00 0.00 0.00 12 1007.0
20260501204524 94 141 5.2 9.6 0.00 0.00 0.00 14 1007.2
20260501203059 93 80 6.1 10.4 0.00 0.00 0.00 13 1007.2
20260501201607 93 98 1.7 8.7 0.00 0.00 0.00 17 1007.3
20260501200036 92 81 3.5 9.6 0.00 0.00 0.00 18 1007.6
20260501194534 92 109 3.5 9.6 0.00 0.00 0.00 20 1007.7
20260501193013 91 144 2.6 7.0 0.00 0.00 0.00 21 1007.9
20260501191509 90 117 4.3 7.8 0.00 0.00 0.00 24 1008.0
20260501190048 89 78 1.7 7.0 0.00 0.00 0.00 25 1008.4
20260501184545 87 107 1.7 7.0 0.00 0.00 0.00 27 1008.5
20260501183025 87 134 0.9 6.1 0.00 0.00 0.00 28 1008.7
20260501181518 86 128 3.5 7.0 0.00 0.00 0.00 29 1008.9
20260501174607 84 132 4.3 7.8 0.00 0.00 0.00 31 1009.0
20260501173038 84 51 3.5 7.0 0.00 0.00 0.00 33 1008.9
20260501171533 83 97 1.7 8.7 0.00 0.00 0.00 32 1009.1
20260501170005 83 69 0.9 6.1 0.00 0.00 0.00 31 1009.2
20260501164502 82 51 1.7 4.3 0.00 0.00 0.00 33 1009.2
20260501163043 81 74 0.0 3.5 0.00 0.00 0.00 33 1008.9
20260501161537 80 92 0.9 5.2 0.00 0.00 0.00 35 1008.8